{"data":{"norad_id":47804,"intl_designator":"2021-018T","name":"STARLINK-2385","alt_names":[],"object_type":"PAYLOAD","status":"ACTIVE","operator":null,"country":"US","launch_date":"2021-03-11","launch_site_code":"AFETR","launch_vehicle":null,"mission":null,"orbit_class":"UNKNOWN","rcs_meters":null,"size_class":null,"mass_kg":null,"dimensions":null,"purposes":["comms"],"wikipedia_slug":null,"has_3d_model":false,"image_url":null,"decayed_at":null,"tle_current":{"epoch":"2026-09-20T00:52:36.147072Z","epoch_age_seconds":67154,"freshness":"FRESH","line1":"1 47804U 21018T   26263.03652948  .00033046  00000+0  10242-2 0  9997","line2":"2 47804  53.1590  45.6018 0001353   4.3508 355.7505 15.33157776306671","mean_motion":15.33157776,"eccentricity":0.0001353,"inclination_deg":53.159,"raan_deg":45.6018,"arg_perigee_deg":4.3508,"mean_anomaly_deg":355.7505,"bstar":0.0010242,"rev_number":30667,"period_min":93.923797181328,"perigee_km":465.47181886489,"apogee_km":467.32395000461,"semimajor_km":6844.5348844347,"source":"CELESTRAK","updated_at":"2026-09-20T09:00:38.747069Z"}}}